Tracking 17921 objects as of 17-January-2017
HD Live streaming from Space Station
objects crossing your sky now

UNAMSAT

Track UNAMSAT now!
10-day predictions
UNAMSAT is classified as:


NORAD ID: 24305
Int'l Code: 1996-052B
Perigee: 969.9 km
Apogee: 1,016.4 km
Inclination: 82.9 °
Period: 104.8 minutes
Semi major axis: 7364 km
RCS: 0.174 m2 (medium)
Launch date: September 5, 1996
Source: Mexico (MEX)
Launch site: PLESETSK MISSILE AND SPACE COMPLEX (PKMTR)
Your satellite tracking list
Your tracking list is empty





NASA's NSSDC Master Catalog

Two Line Element Set (TLE):
1 24305U 96052B   17016.23919173  .00000040  00000-0  26313-4 0  9999
2 24305  82.9377 104.9969 0031553 105.4843 254.9801 13.73778402 20982
Source of the keplerian elements: AFSPC